Starlink 32244

operational
NORAD ID: 60411 Int'l Des: 2024-141 Owner: SPXS Country: US Constellation: starlink
LEOCIRCULAR

Über Starlink 32244

Beschreibung wird geladen...

Live-Position

3D-Globus wird geladen...

Nächste Überflüge

Höhenverlauf

Altitude vs Time

uPlot chart will show altitude changes over time

Zweizeiliger Elementsatz

1 60411U 24141P 25305.51570237 -.00001064 00000-0 -23797-4 0 9994
2 60411 53.1604 118.1558 0002203 101.5606 258.5642 15.30191829 69958
Epoch: 1. Nov. 2025 • Age: 11 hours

Aktueller Status

Höhe 478.2 km
Geschwindigkeit 7.63 km/s
Subsatellitenpunkt 42.10°N, 122.86°E
Startdatum 10. Aug. 2024
Alter 1.2 years
Typ internet

Technische Details

Klassifizierung Payload
Masse 730.00 kg
Trockenmasse 700.00 kg
Gesamtmasse 730.00 kg
Länge 0.30 m
Durchmesser 4.10 m
Spannweite 29.00 m
Form Box + pan
Hersteller SPXS
Bus-Typ Starlink V2M
Phasenstatus In Orbit
Besitzer/Staat SPXS/US

Große Konstellationen

Loading constellations...